TSC998 CYMX-LFPO

Flight info

Callsign TSC998
Flight time 6h 36m
Altitude 33000
Route MAIRE Q812 ANATI Q850 KISUV DCT 49N063W DCT MIGLI N517A ALLRY/M082F330 DCT 51N050W 52N040W 52N030W 52N020W DCT LIMRI/N0472F330 DCT XETBO DCT UNLID/M081F330 DCT LULOX/N0467F330 DCT DOLUR DCT OTOFE UN491 LGL UN859 SORAP DCT BOBSA
Aircraft MD11/H-SDE1E2E3FGHIJ2J3J4J5M1RWXY/LB1D1

Departure

Time 2026-04-26 11:09
Airport Montreal Mirabel International Airport (CYMX)

Arrival

Time 2026-04-26 17:46
Airport Paris-Orly Airport (LFPO)
Time Latitude Longitude Altitude Speed Heading
2026-04-26 10:24 45.68414 -74.01568 274 ft 0 kts 123°
2026-04-26 10:59 45.68460 -74.01615 274 ft 6 kts 154°
2026-04-26 11:02 45.68440 -74.01616 274 ft 6 kts 196°
2026-04-26 11:02 45.68430 -74.01684 275 ft 12 kts 276°
2026-04-26 11:03 45.68447 -74.01829 275 ft 16 kts 280°
2026-04-26 11:03 45.68423 -74.01912 278 ft 6 kts 190°
2026-04-26 11:03 45.68399 -74.01887 277 ft 4 kts 137°
2026-04-26 11:03 45.68369 -74.01847 275 ft 7 kts 136°
2026-04-26 11:04 45.68326 -74.01786 279 ft 10 kts 134°
2026-04-26 11:04 45.68271 -74.01704 276 ft 13 kts 133°
2026-04-26 11:04 45.68211 -74.01602 275 ft 13 kts 131°
2026-04-26 11:04 45.68126 -74.01584 275 ft 14 kts 199°
2026-04-26 11:05 45.68048 -74.01664 278 ft 14 kts 223°
2026-04-26 11:05 45.67973 -74.01768 276 ft 16 kts 224°
2026-04-26 11:05 45.67879 -74.01898 279 ft 21 kts 224°
2026-04-26 11:05 45.67763 -74.02060 281 ft 25 kts 224°
2026-04-26 11:06 45.67638 -74.02237 278 ft 24 kts 225°
2026-04-26 11:06 45.67563 -74.02345 281 ft 22 kts 225°
2026-04-26 11:06 45.67417 -74.02500 280 ft 17 kts 184°
2026-04-26 11:06 45.67317 -74.02458 283 ft 14 kts 158°
2026-04-26 11:07 45.67238 -74.02403 280 ft 12 kts 145°
2026-04-26 11:07 45.67180 -74.02332 280 ft 10 kts 137°
2026-04-26 11:07 45.67135 -74.02268 280 ft 9 kts 134°
2026-04-26 11:07 45.67094 -74.02207 279 ft 9 kts 134°
2026-04-26 11:08 45.67084 -74.02134 281 ft 8 kts 76°
2026-04-26 11:08 45.67109 -74.02081 281 ft 11 kts 45°
2026-04-26 11:08 45.67369 -74.01714 279 ft 94 kts 44°
2026-04-26 11:08 45.68015 -74.00791 277 ft 165 kts 45°
2026-04-26 11:09 45.68925 -73.99490 506 ft 194 kts 44°
2026-04-26 11:09 45.69914 -73.98128 1045 ft 201 kts 43°
2026-04-26 11:09 45.70899 -73.96743 1568 ft 196 kts 45°
2026-04-26 11:09 45.71885 -73.95306 2133 ft 209 kts 45°
2026-04-26 11:10 45.72922 -73.93771 2687 ft 219 kts 46°
2026-04-26 11:10 45.73720 -73.91890 3215 ft 226 kts 74°
2026-04-26 11:10 45.73799 -73.89663 3675 ft 235 kts 96°
2026-04-26 11:10 45.73534 -73.87221 3796 ft 257 kts 99°
2026-04-26 11:11 45.73255 -73.84610 4254 ft 268 kts 97°
2026-04-26 11:11 45.73034 -73.81974 4992 ft 272 kts 95°
2026-04-26 11:11 45.72858 -73.79253 5709 ft 277 kts 94°
2026-04-26 11:11 45.72717 -73.76450 6461 ft 280 kts 92°
2026-04-26 11:12 45.72606 -73.73643 7196 ft 285 kts 92°
2026-04-26 11:12 45.72508 -73.70799 7887 ft 288 kts 92°
2026-04-26 11:12 45.72423 -73.67949 8560 ft 292 kts 91°
2026-04-26 11:12 45.72345 -73.65021 9231 ft 296 kts 91°
2026-04-26 11:13 45.72267 -73.62023 9910 ft 299 kts 91°
2026-04-26 11:13 45.72193 -73.59005 10397 ft 312 kts 92°
2026-04-26 11:13 45.72119 -73.55802 10532 ft 333 kts 91°
2026-04-26 11:13 45.72041 -73.52380 10714 ft 352 kts 91°
2026-04-26 11:14 45.71960 -73.48901 11334 ft 357 kts 92°
2026-04-26 11:14 45.71875 -73.45337 11995 ft 360 kts 92°
2026-04-26 11:14 45.71788 -73.41740 12645 ft 364 kts 92°
2026-04-26 11:14 45.71729 -73.39290 13055 ft 367 kts 92°
2026-04-26 11:15 45.71611 -73.34430 13861 ft 371 kts 92°
2026-04-26 11:15 45.71519 -73.30722 14456 ft 375 kts 92°
2026-04-26 11:15 45.71427 -73.26974 15028 ft 379 kts 91°
2026-04-26 11:15 45.71334 -73.23188 15624 ft 382 kts 91°
2026-04-26 11:16 45.71237 -73.19372 16175 ft 386 kts 92°
2026-04-26 11:16 45.71169 -73.15521 16701 ft 389 kts 88°
2026-04-26 11:16 45.71561 -73.11690 17204 ft 390 kts 71°
2026-04-26 11:16 45.72701 -73.08166 17679 ft 393 kts 58°
2026-04-26 11:17 45.74209 -73.04881 18176 ft 396 kts 54°
2026-04-26 11:17 45.75826 -73.01675 18657 ft 399 kts 53°
2026-04-26 11:17 45.77463 -72.98446 19138 ft 402 kts 53°
2026-04-26 11:17 45.79090 -72.95167 19593 ft 406 kts 54°
2026-04-26 11:18 45.80708 -72.91832 20072 ft 409 kts 54°
2026-04-26 11:18 45.82319 -72.88450 20510 ft 412 kts 55°
2026-04-26 11:18 45.83932 -72.85032 20958 ft 415 kts 55°
2026-04-26 11:18 45.85547 -72.81584 21394 ft 419 kts 55°
2026-04-26 11:19 45.87174 -72.78098 21815 ft 422 kts 56°
2026-04-26 11:19 45.88811 -72.74584 22235 ft 425 kts 55°
2026-04-26 11:19 45.90457 -72.71053 22644 ft 428 kts 55°
2026-04-26 11:19 45.92121 -72.67481 23060 ft 431 kts 55°
2026-04-26 11:20 45.93792 -72.63890 23462 ft 434 kts 55°
2026-04-26 11:20 45.94904 -72.61500 23725 ft 436 kts 55°
2026-04-26 11:20 45.97194 -72.56666 24223 ft 439 kts 53°
2026-04-26 11:20 45.99035 -72.53147 24610 ft 441 kts 51°
2026-04-26 11:21 46.00947 -72.49679 24974 ft 444 kts 50°
2026-04-26 11:21 46.02885 -72.46224 25402 ft 444 kts 50°
2026-04-26 11:21 46.04838 -72.42752 25754 ft 447 kts 50°
2026-04-26 11:21 46.06801 -72.39257 26105 ft 450 kts 50°
2026-04-26 11:22 46.08767 -72.35737 26453 ft 453 kts 50°
2026-04-26 11:22 46.10743 -72.32182 26785 ft 455 kts 50°
2026-04-26 11:22 46.12723 -72.28607 27105 ft 458 kts 50°
2026-04-26 11:22 46.14708 -72.25005 27417 ft 460 kts 50°
2026-04-26 11:23 46.16707 -72.21375 27720 ft 463 kts 50°
2026-04-26 11:23 46.18712 -72.17730 28030 ft 465 kts 50°
2026-04-26 11:23 46.20043 -72.15308 28218 ft 467 kts 50°
2026-04-26 11:23 46.22065 -72.11625 28508 ft 469 kts 50°
2026-04-26 11:24 46.24096 -72.07929 28802 ft 471 kts 50°
2026-04-26 11:24 46.26137 -72.04212 29082 ft 473 kts 50°
2026-04-26 11:24 46.28188 -72.00475 29367 ft 476 kts 50°
2026-04-26 11:24 46.30248 -71.96714 29650 ft 478 kts 50°
2026-04-26 11:25 46.32311 -71.92939 29912 ft 480 kts 50°
2026-04-26 11:25 46.34385 -71.89138 30235 ft 481 kts 50°
2026-04-26 11:25 46.36455 -71.85339 30600 ft 480 kts 50°
2026-04-26 11:25 46.38560 -71.81600 30934 ft 478 kts 46°
2026-04-26 11:26 46.40869 -71.78142 31301 ft 476 kts 42°
2026-04-26 11:26 46.43302 -71.74896 31646 ft 475 kts 40°
2026-04-26 11:26 46.45780 -71.71746 31993 ft 474 kts 39°
2026-04-26 11:26 46.48270 -71.68611 32310 ft 473 kts 39°
2026-04-26 11:27 46.50750 -71.65473 32646 ft 472 kts 39°
2026-04-26 11:27 46.53216 -71.62318 32941 ft 472 kts 39°
2026-04-26 11:27 46.55670 -71.59152 33151 ft 473 kts 39°
2026-04-26 11:27 46.58130 -71.55954 33193 ft 477 kts 40°
2026-04-26 11:28 46.63075 -71.49497 33209 ft 476 kts 40°
2026-04-26 11:28 46.67991 -71.43055 33211 ft 475 kts 40°
2026-04-26 11:29 46.72872 -71.36650 33211 ft 476 kts 39°
2026-04-26 11:29 46.77816 -71.30144 33212 ft 476 kts 39°
2026-04-26 11:30 46.82429 -71.23306 33212 ft 477 kts 46°
2026-04-26 11:30 46.86739 -71.15921 33212 ft 478 kts 47°
2026-04-26 11:31 46.91018 -71.08484 33210 ft 478 kts 47°
2026-04-26 11:31 46.95317 -71.01086 33210 ft 477 kts 47°
2026-04-26 11:32 46.99627 -70.93694 33211 ft 477 kts 47°
2026-04-26 11:32 47.03934 -70.86296 33210 ft 477 kts 47°
2026-04-26 11:33 47.08228 -70.78871 33210 ft 477 kts 47°
2026-04-26 11:33 47.12508 -70.71436 33210 ft 477 kts 47°
2026-04-26 11:34 47.16782 -70.64001 33208 ft 476 kts 47°
2026-04-26 11:34 47.21054 -70.56567 33198 ft 476 kts 47°
2026-04-26 11:35 47.25318 -70.49128 33203 ft 475 kts 47°
2026-04-26 11:35 47.29571 -70.41691 33203 ft 474 kts 48°
2026-04-26 11:36 47.33807 -70.34259 33209 ft 473 kts 48°
2026-04-26 11:36 47.38038 -70.26816 33210 ft 473 kts 48°
2026-04-26 11:37 47.42254 -70.19375 33209 ft 472 kts 48°
2026-04-26 11:37 47.46407 -70.11953 33212 ft 472 kts 49°
2026-04-26 11:38 47.50569 -70.04470 33212 ft 471 kts 49°
2026-04-26 11:38 47.54755 -69.96945 33212 ft 470 kts 49°
2026-04-26 11:39 47.58905 -69.89478 33212 ft 469 kts 49°
2026-04-26 11:39 47.63020 -69.82056 33211 ft 469 kts 49°
2026-04-26 11:40 47.67191 -69.74521 33211 ft 469 kts 49°
2026-04-26 11:40 47.71321 -69.67033 33210 ft 469 kts 49°
2026-04-26 11:42 47.88922 -69.38589 33203 ft 468 kts 45°
2026-04-26 11:43 47.93374 -69.31506 33205 ft 468 kts 45°
2026-04-26 11:43 47.97816 -69.24414 33202 ft 467 kts 45°
2026-04-26 11:44 48.02249 -69.17317 33205 ft 467 kts 46°
2026-04-26 11:44 48.06649 -69.10252 33199 ft 461 kts 47°
2026-04-26 11:45 48.10999 -69.03248 33213 ft 462 kts 47°
2026-04-26 11:45 48.15408 -68.96133 33205 ft 469 kts 48°
2026-04-26 11:46 48.19844 -68.88950 33210 ft 468 kts 48°
2026-04-26 11:46 48.24254 -68.81794 33210 ft 467 kts 48°
2026-04-26 11:47 48.28659 -68.74629 33212 ft 467 kts 48°
2026-04-26 11:47 48.33031 -68.67433 33210 ft 466 kts 49°
2026-04-26 11:48 48.37400 -68.60225 33217 ft 466 kts 49°
2026-04-26 11:48 48.41776 -68.53024 33221 ft 466 kts 49°
2026-04-26 11:49 48.46149 -68.45838 33221 ft 466 kts 49°
2026-04-26 11:49 48.50514 -68.38639 33220 ft 465 kts 49°
2026-04-26 11:50 48.54870 -68.31429 33220 ft 465 kts 49°
2026-04-26 11:50 48.59138 -68.24109 33221 ft 463 kts 54°
2026-04-26 11:51 48.62283 -68.15696 33220 ft 460 kts 70°
2026-04-26 11:51 48.63684 -68.06296 33223 ft 459 kts 84°
2026-04-26 11:52 48.64066 -67.98289 33221 ft 460 kts 85°
2026-04-26 11:52 48.64791 -67.87068 33219 ft 456 kts 83°
2026-04-26 11:53 48.65630 -67.77593 33219 ft 454 kts 81°
2026-04-26 11:54 48.66971 -67.63397 33214 ft 454 kts 81°
2026-04-26 11:54 48.67849 -67.53959 33211 ft 452 kts 81°
2026-04-26 11:55 48.68705 -67.44610 33211 ft 451 kts 82°
2026-04-26 11:55 48.69554 -67.35230 33210 ft 449 kts 81°
2026-04-26 11:56 48.70393 -67.25875 33210 ft 449 kts 81°
2026-04-26 11:56 48.71224 -67.16531 33213 ft 447 kts 81°
2026-04-26 11:57 48.72043 -67.07218 33211 ft 445 kts 81°
2026-04-26 11:57 48.72852 -66.97920 33211 ft 445 kts 81°
2026-04-26 11:58 48.73648 -66.88640 33208 ft 444 kts 82°
2026-04-26 11:58 48.74402 -66.79366 33204 ft 443 kts 82°
2026-04-26 11:59 48.75167 -66.70087 33206 ft 443 kts 81°
2026-04-26 11:59 48.75942 -66.60826 33199 ft 442 kts 81°
2026-04-26 12:00 48.76710 -66.51581 33203 ft 442 kts 81°
2026-04-26 12:00 48.77468 -66.42339 33198 ft 441 kts 81°
2026-04-26 12:01 48.78221 -66.33105 33203 ft 441 kts 81°
2026-04-26 12:01 48.78969 -66.23859 33203 ft 442 kts 81°
2026-04-26 12:02 48.79708 -66.14608 33189 ft 441 kts 81°
2026-04-26 12:02 48.80434 -66.05381 33187 ft 441 kts 81°
2026-04-26 12:03 48.81157 -65.96140 33192 ft 441 kts 81°
2026-04-26 12:03 48.81864 -65.87007 33181 ft 436 kts 81°
2026-04-26 12:04 48.82559 -65.77922 33182 ft 433 kts 81°
2026-04-26 12:04 48.83247 -65.68830 33174 ft 434 kts 81°
2026-04-26 12:05 48.83904 -65.59721 33152 ft 434 kts 82°
2026-04-26 12:05 48.84539 -65.50615 33151 ft 434 kts 82°
2026-04-26 12:06 48.85194 -65.41510 33152 ft 433 kts 81°
2026-04-26 12:06 48.85852 -65.32419 33149 ft 433 kts 81°
2026-04-26 12:07 48.86504 -65.23319 33154 ft 433 kts 81°
2026-04-26 12:07 48.87147 -65.14227 33155 ft 433 kts 82°
2026-04-26 12:08 48.87789 -65.05141 33150 ft 432 kts 82°
2026-04-26 12:08 48.88419 -64.96041 33145 ft 433 kts 81°
2026-04-26 12:09 48.88935 -64.88500 33146 ft 432 kts 81°
2026-04-26 12:09 48.89552 -64.79413 33146 ft 432 kts 82°
2026-04-26 12:10 48.90157 -64.70313 33148 ft 432 kts 81°
2026-04-26 12:10 48.90762 -64.61227 33146 ft 432 kts 81°
2026-04-26 12:11 48.91357 -64.52153 33147 ft 432 kts 81°
2026-04-26 12:11 48.91943 -64.43066 33148 ft 432 kts 82°
2026-04-26 12:12 48.92496 -64.33966 33148 ft 432 kts 82°
2026-04-26 12:12 48.93033 -64.24863 33148 ft 432 kts 82°
2026-04-26 12:13 48.93582 -64.15776 33146 ft 431 kts 82°
2026-04-26 12:13 48.94140 -64.06691 33148 ft 431 kts 82°
2026-04-26 12:14 48.94691 -63.97601 33148 ft 431 kts 82°
2026-04-26 12:14 48.95235 -63.88524 33146 ft 430 kts 81°
2026-04-26 12:15 48.95770 -63.79461 33148 ft 429 kts 81°
2026-04-26 12:15 48.96293 -63.70463 33146 ft 430 kts 81°
2026-04-26 12:16 48.96814 -63.61398 33145 ft 429 kts 81°
2026-04-26 12:16 48.97327 -63.52335 33138 ft 430 kts 81°
2026-04-26 12:17 48.97833 -63.43264 33138 ft 430 kts 81°
2026-04-26 12:17 48.98334 -63.34205 33139 ft 429 kts 81°
2026-04-26 12:18 48.98823 -63.25141 33130 ft 430 kts 81°
2026-04-26 12:18 48.99309 -63.16070 33128 ft 429 kts 81°
2026-04-26 12:19 48.99756 -63.06943 33128 ft 429 kts 81°
2026-04-26 12:19 49.00537 -62.97963 33128 ft 427 kts 76°
2026-04-26 12:20 49.01705 -62.89119 33128 ft 425 kts 75°
2026-04-26 12:20 49.02896 -62.80340 33128 ft 426 kts 75°
2026-04-26 12:21 49.04063 -62.71505 33120 ft 426 kts 75°
2026-04-26 12:21 49.05212 -62.62646 33119 ft 425 kts 75°
2026-04-26 12:22 49.06346 -62.53814 33119 ft 425 kts 75°
2026-04-26 12:22 49.07478 -62.44965 33118 ft 424 kts 75°
2026-04-26 12:23 49.08601 -62.36134 33120 ft 424 kts 75°
2026-04-26 12:23 49.09712 -62.27309 33119 ft 423 kts 75°
2026-04-26 12:24 49.10817 -62.18484 33112 ft 423 kts 75°
2026-04-26 12:24 49.11915 -62.09673 33109 ft 422 kts 75°
2026-04-26 12:25 49.13547 -61.96461 33109 ft 422 kts 75°
2026-04-26 12:25 49.14622 -61.87662 33110 ft 421 kts 75°
2026-04-26 12:26 49.15687 -61.78871 33108 ft 421 kts 75°
2026-04-26 12:26 49.16714 -61.70055 33080 ft 421 kts 75°
2026-04-26 12:27 49.17743 -61.61297 33073 ft 421 kts 75°
2026-04-26 12:27 49.18787 -61.52479 33065 ft 422 kts 75°
2026-04-26 12:28 49.19829 -61.43657 33064 ft 421 kts 75°
2026-04-26 12:28 49.20866 -61.34840 33064 ft 422 kts 75°
2026-04-26 12:29 49.21897 -61.26018 33064 ft 421 kts 75°
2026-04-26 12:30 49.23432 -61.12760 33064 ft 422 kts 75°
2026-04-26 12:30 49.24446 -61.03900 33067 ft 423 kts 75°
2026-04-26 12:31 49.25955 -60.90605 33063 ft 422 kts 75°
2026-04-26 12:31 49.26956 -60.81764 33055 ft 422 kts 75°
2026-04-26 12:32 49.27948 -60.72910 33091 ft 422 kts 75°
2026-04-26 12:33 49.29424 -60.59631 33090 ft 421 kts 75°
2026-04-26 12:33 49.30374 -60.50778 33070 ft 421 kts 75°
2026-04-26 12:34 49.31293 -60.41957 33037 ft 417 kts 75°
2026-04-26 12:34 49.32231 -60.33165 33035 ft 419 kts 75°
2026-04-26 12:35 49.33180 -60.24350 33037 ft 419 kts 75°
2026-04-26 12:35 49.34118 -60.15550 33028 ft 418 kts 75°
2026-04-26 12:36 49.35047 -60.06767 33025 ft 417 kts 75°
2026-04-26 12:36 49.35970 -59.97978 33020 ft 417 kts 74°
2026-04-26 12:37 49.36881 -59.89224 33019 ft 419 kts 75°
2026-04-26 12:37 49.37796 -59.80385 33014 ft 419 kts 75°
2026-04-26 12:38 49.38703 -59.71551 33009 ft 420 kts 75°
2026-04-26 12:38 49.39608 -59.62677 33002 ft 420 kts 75°
2026-04-26 12:39 49.40503 -59.53800 32998 ft 421 kts 75°
2026-04-26 12:39 49.41398 -59.44906 32996 ft 422 kts 75°
2026-04-26 12:40 49.42286 -59.35987 32992 ft 423 kts 75°
2026-04-26 12:40 49.43162 -59.27036 32979 ft 425 kts 76°
2026-04-26 12:41 49.43996 -59.18017 32978 ft 426 kts 76°
2026-04-26 12:41 49.44852 -59.08996 32968 ft 427 kts 75°
2026-04-26 12:42 49.45716 -58.99952 32965 ft 428 kts 75°
2026-04-26 12:42 49.46586 -58.90884 32958 ft 429 kts 75°
2026-04-26 12:43 49.47442 -58.81810 32953 ft 429 kts 75°
2026-04-26 12:43 49.48293 -58.72715 32943 ft 430 kts 75°
2026-04-26 12:44 49.49141 -58.63603 32943 ft 431 kts 75°
2026-04-26 12:44 49.49981 -58.54487 32944 ft 431 kts 75°
2026-04-26 12:45 49.50812 -58.45369 32933 ft 430 kts 75°
2026-04-26 12:45 49.51638 -58.36244 32935 ft 430 kts 75°
2026-04-26 12:46 49.52596 -58.27200 32934 ft 425 kts 71°
2026-04-26 12:46 49.54113 -58.18450 32930 ft 422 kts 68°
2026-04-26 12:47 49.55761 -58.09786 32924 ft 422 kts 68°
2026-04-26 12:47 49.57389 -58.01114 32927 ft 421 kts 68°
2026-04-26 12:48 49.58987 -57.92454 32924 ft 424 kts 68°
2026-04-26 12:48 49.60586 -57.83700 32923 ft 425 kts 68°
2026-04-26 12:49 49.62177 -57.74933 32920 ft 425 kts 69°
2026-04-26 12:49 49.63769 -57.66139 32921 ft 425 kts 69°
2026-04-26 12:50 49.65349 -57.57341 32924 ft 427 kts 69°
2026-04-26 12:50 49.66934 -57.48497 32924 ft 428 kts 69°
2026-04-26 12:51 49.68517 -57.39606 32928 ft 429 kts 69°
2026-04-26 12:51 49.70098 -57.30688 32913 ft 432 kts 69°
2026-04-26 12:52 49.71680 -57.21725 32905 ft 434 kts 69°
2026-04-26 12:52 49.73266 -57.12703 32907 ft 435 kts 69°
2026-04-26 12:53 49.74832 -57.03650 32898 ft 436 kts 70°
2026-04-26 12:53 49.76366 -56.94556 32899 ft 439 kts 70°
2026-04-26 12:54 49.77928 -56.85420 32899 ft 441 kts 70°
2026-04-26 12:54 49.79236 -56.77793 32898 ft 441 kts 70°
2026-04-26 12:55 49.80809 -56.68609 32883 ft 442 kts 70°
2026-04-26 12:55 49.82381 -56.59380 32883 ft 443 kts 70°
2026-04-26 12:56 49.83942 -56.50152 32885 ft 443 kts 70°
2026-04-26 12:56 49.85499 -56.40904 32876 ft 443 kts 70°
2026-04-26 12:57 49.87048 -56.31665 32881 ft 443 kts 70°
2026-04-26 12:57 49.88591 -56.22407 32871 ft 444 kts 71°
2026-04-26 12:58 49.90892 -56.08517 32869 ft 443 kts 71°
2026-04-26 12:58 49.92416 -55.99240 32860 ft 443 kts 71°
2026-04-26 12:59 49.93928 -55.89975 32855 ft 443 kts 71°
2026-04-26 12:59 49.95429 -55.80700 32848 ft 443 kts 71°
2026-04-26 13:00 49.96889 -55.71400 32837 ft 444 kts 71°
2026-04-26 13:00 49.98362 -55.62075 32830 ft 445 kts 71°
2026-04-26 13:01 49.99852 -55.52734 32830 ft 446 kts 71°
2026-04-26 13:01 50.01341 -55.43371 32821 ft 444 kts 71°
2026-04-26 13:02 50.02807 -55.34098 32825 ft 441 kts 71°
2026-04-26 13:02 50.04263 -55.24838 32816 ft 441 kts 71°
2026-04-26 13:03 50.05710 -55.15577 32815 ft 441 kts 71°
2026-04-26 13:03 50.07154 -55.06284 32814 ft 441 kts 71°
2026-04-26 13:04 50.08587 -54.96997 32813 ft 441 kts 72°
2026-04-26 13:04 50.10015 -54.87704 32813 ft 442 kts 72°
2026-04-26 13:05 50.11440 -54.78380 32807 ft 443 kts 72°
2026-04-26 13:05 50.12861 -54.69026 32804 ft 443 kts 72°
2026-04-26 13:06 50.14275 -54.59661 32804 ft 445 kts 72°
2026-04-26 13:06 50.15658 -54.50236 32788 ft 446 kts 73°
2026-04-26 13:07 50.17026 -54.40803 32767 ft 446 kts 73°
2026-04-26 13:07 50.18413 -54.31367 32768 ft 447 kts 73°
2026-04-26 13:08 50.19806 -54.21909 32768 ft 448 kts 73°
2026-04-26 13:08 50.21198 -54.12405 32767 ft 449 kts 73°
2026-04-26 13:09 50.22578 -54.02906 32767 ft 449 kts 73°
2026-04-26 13:09 50.23956 -53.93392 32766 ft 449 kts 73°
2026-04-26 13:10 50.25326 -53.83864 32766 ft 450 kts 73°
2026-04-26 13:10 50.26687 -53.74326 32758 ft 449 kts 73°
2026-04-26 13:11 50.28042 -53.64792 32758 ft 450 kts 73°
2026-04-26 13:11 50.29390 -53.55241 32757 ft 449 kts 73°
2026-04-26 13:12 50.30729 -53.45689 32757 ft 450 kts 73°
2026-04-26 13:12 50.32060 -53.36122 32764 ft 451 kts 73°
2026-04-26 13:13 50.33370 -53.26532 32779 ft 450 kts 74°
2026-04-26 13:13 50.34644 -53.16926 32776 ft 451 kts 74°
2026-04-26 13:14 50.35937 -53.07315 32776 ft 452 kts 74°
2026-04-26 13:14 50.37242 -52.97678 32767 ft 452 kts 74°
2026-04-26 13:15 50.38544 -52.88014 32766 ft 454 kts 74°
2026-04-26 13:15 50.39633 -52.79883 32767 ft 456 kts 74°
2026-04-26 13:16 50.41140 -52.68568 32769 ft 457 kts 75°
2026-04-26 13:16 50.42431 -52.58786 32809 ft 459 kts 75°
2026-04-26 13:17 50.44357 -52.44036 32815 ft 461 kts 75°
2026-04-26 13:18 50.46278 -52.29215 32813 ft 463 kts 75°
2026-04-26 13:19 50.48188 -52.14313 32813 ft 465 kts 75°
2026-04-26 13:19 50.49482 -52.04363 32811 ft 464 kts 73°
2026-04-26 13:20 50.51537 -51.94799 32779 ft 462 kts 65°
2026-04-26 13:20 50.54015 -51.85475 32775 ft 462 kts 65°
2026-04-26 13:21 50.56501 -51.76139 32775 ft 463 kts 65°
2026-04-26 13:21 50.58930 -51.66780 32777 ft 462 kts 65°
2026-04-26 13:22 50.61329 -51.57404 32777 ft 461 kts 66°
2026-04-26 13:22 50.63719 -51.48042 32775 ft 461 kts 66°
2026-04-26 13:23 50.66102 -51.38671 32775 ft 460 kts 66°
2026-04-26 13:23 50.68473 -51.29305 32775 ft 460 kts 66°
2026-04-26 13:24 50.70834 -51.19944 32775 ft 459 kts 66°
2026-04-26 13:24 50.73191 -51.10561 32777 ft 460 kts 66°
2026-04-26 13:25 50.75546 -51.01155 32775 ft 460 kts 66°
2026-04-26 13:25 50.77887 -50.91735 32775 ft 461 kts 66°
2026-04-26 13:26 50.80226 -50.82283 32776 ft 462 kts 67°
2026-04-26 13:26 50.82513 -50.72818 32776 ft 462 kts 67°
2026-04-26 13:27 50.84821 -50.63298 32775 ft 463 kts 67°
2026-04-26 13:27 50.87124 -50.53860 32773 ft 454 kts 67°
2026-04-26 13:28 50.89382 -50.44593 32775 ft 450 kts 67°
2026-04-26 13:28 50.91628 -50.35333 32775 ft 451 kts 67°
2026-04-26 13:29 50.93875 -50.26042 32776 ft 452 kts 67°
2026-04-26 13:29 50.96115 -50.16738 32775 ft 451 kts 67°
2026-04-26 13:30 50.98345 -50.07427 32779 ft 451 kts 67°
2026-04-26 13:30 51.00554 -49.98115 32777 ft 451 kts 69°
2026-04-26 13:31 51.02236 -49.88528 32779 ft 457 kts 75°
2026-04-26 13:31 51.03609 -49.78649 32776 ft 458 kts 76°
2026-04-26 13:32 51.04972 -49.68766 32775 ft 458 kts 76°
2026-04-26 13:32 51.06361 -49.58882 32775 ft 458 kts 76°
2026-04-26 13:33 51.07762 -49.48996 32767 ft 458 kts 76°
2026-04-26 13:33 51.09154 -49.39106 32766 ft 459 kts 76°
2026-04-26 13:34 51.10535 -49.29189 32766 ft 459 kts 76°
2026-04-26 13:34 51.11911 -49.19269 32766 ft 459 kts 76°
2026-04-26 13:35 51.13053 -49.10993 32767 ft 460 kts 76°
2026-04-26 13:35 51.14417 -49.01027 32767 ft 461 kts 76°
2026-04-26 13:36 51.15771 -48.91057 32766 ft 461 kts 76°
2026-04-26 13:36 51.17122 -48.81059 32767 ft 462 kts 77°
2026-04-26 13:37 51.18464 -48.71037 32767 ft 462 kts 77°
2026-04-26 13:37 51.19770 -48.60996 32767 ft 463 kts 77°
2026-04-26 13:38 51.21063 -48.50929 32766 ft 463 kts 77°
2026-04-26 13:38 51.22372 -48.40861 32766 ft 464 kts 77°
2026-04-26 13:39 51.23683 -48.30790 32767 ft 464 kts 77°
2026-04-26 13:39 51.24998 -48.20647 32768 ft 464 kts 77°
2026-04-26 13:40 51.26285 -48.10632 32766 ft 463 kts 78°
2026-04-26 13:40 51.27570 -48.00546 32767 ft 464 kts 78°
2026-04-26 13:41 51.28850 -47.90446 32767 ft 465 kts 78°
2026-04-26 13:41 51.30127 -47.80298 32767 ft 467 kts 78°
2026-04-26 13:42 51.31397 -47.70118 32766 ft 467 kts 78°
2026-04-26 13:42 51.32657 -47.59903 32766 ft 468 kts 79°
2026-04-26 13:43 51.33911 -47.49706 32768 ft 468 kts 79°
2026-04-26 13:43 51.35159 -47.39497 32766 ft 468 kts 79°
2026-04-26 13:44 51.36363 -47.29234 32766 ft 470 kts 79°
2026-04-26 13:44 51.37563 -47.18943 32767 ft 471 kts 79°
2026-04-26 13:45 51.38777 -47.08656 32767 ft 471 kts 79°
2026-04-26 13:45 51.39998 -46.98343 32767 ft 472 kts 79°
2026-04-26 13:46 51.41211 -46.88010 32767 ft 472 kts 80°
2026-04-26 13:46 51.42416 -46.77663 32767 ft 473 kts 80°
2026-04-26 13:47 51.43609 -46.67301 32769 ft 473 kts 80°
2026-04-26 13:47 51.44794 -46.56927 32767 ft 473 kts 81°
2026-04-26 13:48 51.45970 -46.46561 32766 ft 472 kts 81°
2026-04-26 13:48 51.47139 -46.36190 32766 ft 473 kts 81°
2026-04-26 13:49 51.48297 -46.25819 32767 ft 472 kts 81°
2026-04-26 13:49 51.49447 -46.15428 32767 ft 473 kts 81°
2026-04-26 13:50 51.50576 -46.05051 32766 ft 472 kts 82°
2026-04-26 13:50 51.51656 -45.94651 32767 ft 472 kts 82°
2026-04-26 13:51 51.52743 -45.84325 32767 ft 473 kts 82°
2026-04-26 13:51 51.53860 -45.73833 32767 ft 474 kts 82°
2026-04-26 13:52 51.54963 -45.63439 32767 ft 475 kts 82°
2026-04-26 13:52 51.56071 -45.52905 32767 ft 476 kts 82°
2026-04-26 13:53 51.57166 -45.42407 32766 ft 477 kts 82°
2026-04-26 13:53 51.58248 -45.31930 32733 ft 478 kts 83°
2026-04-26 13:54 51.59331 -45.21294 32695 ft 479 kts 83°
2026-04-26 13:54 51.60400 -45.10729 32690 ft 480 kts 83°
2026-04-26 13:55 51.61815 -44.96590 32700 ft 482 kts 83°
2026-04-26 13:56 51.63578 -44.78762 32699 ft 484 kts 84°
2026-04-26 13:56 51.64588 -44.68043 32699 ft 484 kts 84°
2026-04-26 13:57 51.65581 -44.57320 32697 ft 485 kts 84°
2026-04-26 13:57 51.66593 -44.46592 32702 ft 485 kts 84°
2026-04-26 13:58 51.67611 -44.35838 32699 ft 485 kts 84°
2026-04-26 13:58 51.68608 -44.25169 32701 ft 485 kts 84°
2026-04-26 13:59 51.69605 -44.14425 32704 ft 485 kts 84°
2026-04-26 13:59 51.70599 -44.03605 32707 ft 485 kts 84°
2026-04-26 14:00 51.72533 -43.82138 32716 ft 485 kts 85°
2026-04-26 14:01 51.73494 -43.71370 32704 ft 485 kts 85°
2026-04-26 14:01 51.74449 -43.60478 32897 ft 486 kts 85°
2026-04-26 14:01 51.74920 -43.55077 33223 ft 486 kts 85°
2026-04-26 14:02 51.75388 -43.49673 33531 ft 486 kts 85°
2026-04-26 14:02 51.75854 -43.44271 33855 ft 486 kts 85°
2026-04-26 14:02 51.76301 -43.38869 34175 ft 485 kts 86°
2026-04-26 14:02 51.76735 -43.33464 34432 ft 486 kts 86°
2026-04-26 14:03 51.77170 -43.28058 34652 ft 488 kts 86°
2026-04-26 14:03 51.78065 -43.17147 34713 ft 489 kts 86°
2026-04-26 14:04 51.78974 -43.06197 34722 ft 488 kts 86°
2026-04-26 14:04 51.79869 -42.95319 34722 ft 489 kts 86°
2026-04-26 14:05 51.80756 -42.84407 34721 ft 490 kts 86°
2026-04-26 14:05 51.81630 -42.73492 34718 ft 490 kts 87°
2026-04-26 14:06 51.82496 -42.62563 34717 ft 490 kts 87°
2026-04-26 14:06 51.83352 -42.51617 34723 ft 491 kts 87°
2026-04-26 14:07 51.84198 -42.40664 34720 ft 491 kts 87°
2026-04-26 14:07 51.85037 -42.29700 34728 ft 491 kts 87°
2026-04-26 14:08 51.85864 -42.18739 34732 ft 491 kts 88°
2026-04-26 14:08 51.86673 -42.07767 34719 ft 491 kts 88°
2026-04-26 14:09 51.87429 -41.96794 34729 ft 491 kts 88°
2026-04-26 14:09 51.88197 -41.85820 34720 ft 491 kts 88°
2026-04-26 14:10 51.88980 -41.74839 34731 ft 491 kts 88°
2026-04-26 14:10 51.89756 -41.63839 34726 ft 491 kts 88°
2026-04-26 14:11 51.90778 -41.49132 34732 ft 492 kts 89°
2026-04-26 14:11 51.91532 -41.38112 34737 ft 493 kts 89°
2026-04-26 14:12 51.92277 -41.27072 34741 ft 493 kts 89°
2026-04-26 14:12 51.93009 -41.16018 34742 ft 494 kts 89°
2026-04-26 14:13 51.94098 -40.99401 34747 ft 495 kts 90°
2026-04-26 14:14 51.94812 -40.88307 34752 ft 495 kts 90°
2026-04-26 14:14 51.95518 -40.77119 34748 ft 496 kts 91°
2026-04-26 14:15 51.96153 -40.66072 34747 ft 495 kts 91°
2026-04-26 14:15 51.96794 -40.54948 34751 ft 496 kts 91°
2026-04-26 14:16 51.97456 -40.43828 34751 ft 495 kts 91°
2026-04-26 14:16 51.98115 -40.32711 34747 ft 495 kts 91°
2026-04-26 14:17 51.98764 -40.21595 34752 ft 496 kts 91°
2026-04-26 14:17 51.99404 -40.10455 34753 ft 495 kts 91°
2026-04-26 14:18 52.00032 -39.99329 34757 ft 495 kts 92°
2026-04-26 14:18 52.00649 -39.88202 34757 ft 495 kts 92°
2026-04-26 14:19 52.01202 -39.77083 34758 ft 494 kts 93°
2026-04-26 14:19 52.01632 -39.65973 34758 ft 493 kts 94°
2026-04-26 14:20 52.02053 -39.54848 34758 ft 494 kts 93°
2026-04-26 14:20 52.02480 -39.43718 34758 ft 494 kts 94°
2026-04-26 14:21 52.02903 -39.32578 34758 ft 495 kts 94°
2026-04-26 14:21 52.03312 -39.21397 34758 ft 496 kts 94°
2026-04-26 14:22 52.03715 -39.10216 34758 ft 496 kts 95°
2026-04-26 14:22 52.04110 -38.99017 34758 ft 498 kts 95°
2026-04-26 14:23 52.04493 -38.87757 34767 ft 500 kts 95°
2026-04-26 14:23 52.04867 -38.76464 34767 ft 502 kts 96°
2026-04-26 14:24 52.05232 -38.65132 34766 ft 503 kts 96°
2026-04-26 14:24 52.05585 -38.53727 34769 ft 511 kts 96°
2026-04-26 14:25 52.05912 -38.42117 34767 ft 517 kts 97°
2026-04-26 14:25 52.06210 -38.30372 34768 ft 522 kts 97°
2026-04-26 14:26 52.06529 -38.18569 34765 ft 523 kts 97°
2026-04-26 14:26 52.06853 -38.06782 34763 ft 522 kts 97°
2026-04-26 14:27 52.07170 -37.94990 34768 ft 522 kts 97°
2026-04-26 14:27 52.07471 -37.83170 34773 ft 522 kts 97°
2026-04-26 14:28 52.07748 -37.71380 34776 ft 522 kts 97°
2026-04-26 14:28 52.08017 -37.59571 34778 ft 523 kts 97°
2026-04-26 14:29 52.08278 -37.47792 34775 ft 521 kts 97°
2026-04-26 14:29 52.08527 -37.36001 34776 ft 523 kts 97°
2026-04-26 14:30 52.08766 -37.24194 34776 ft 522 kts 97°
2026-04-26 14:30 52.08990 -37.12363 34776 ft 524 kts 98°
2026-04-26 14:31 52.09164 -37.00539 34794 ft 524 kts 98°
2026-04-26 14:31 52.09333 -36.88586 34795 ft 525 kts 98°
2026-04-26 14:32 52.09514 -36.76783 34796 ft 526 kts 98°
2026-04-26 14:32 52.09697 -36.64850 34791 ft 528 kts 98°
2026-04-26 14:33 52.09867 -36.52899 34795 ft 529 kts 98°
2026-04-26 14:33 52.10026 -36.40918 34799 ft 531 kts 98°
2026-04-26 14:34 52.10173 -36.28886 34798 ft 532 kts 99°
2026-04-26 14:34 52.10305 -36.16857 34800 ft 533 kts 99°
2026-04-26 14:35 52.10427 -36.04801 34800 ft 533 kts 99°
2026-04-26 14:35 52.10539 -35.92747 34810 ft 533 kts 99°
2026-04-26 14:36 52.10638 -35.80691 34811 ft 533 kts 99°
2026-04-26 14:36 52.10685 -35.68643 34807 ft 531 kts 100°
2026-04-26 14:37 52.10709 -35.56526 34812 ft 532 kts 99°
2026-04-26 14:37 52.10756 -35.44605 34802 ft 530 kts 99°
2026-04-26 14:38 52.10806 -35.32630 34821 ft 530 kts 99°
2026-04-26 14:38 52.10843 -35.20599 34840 ft 527 kts 99°
2026-04-26 14:39 52.10865 -35.08672 34876 ft 526 kts 99°
2026-04-26 14:39 52.10876 -34.96784 34879 ft 525 kts 99°
2026-04-26 14:40 52.10877 -34.84933 34878 ft 523 kts 99°
2026-04-26 14:40 52.10864 -34.73119 34877 ft 522 kts 99°
2026-04-26 14:41 52.10840 -34.61314 34878 ft 520 kts 99°
2026-04-26 14:41 52.10802 -34.49571 34878 ft 519 kts 99°
2026-04-26 14:42 52.10735 -34.37849 34878 ft 518 kts 99°
2026-04-26 14:42 52.10621 -34.26209 34886 ft 517 kts 99°
2026-04-26 14:43 52.10529 -34.14540 34888 ft 516 kts 99°
2026-04-26 14:43 52.10448 -34.02792 34888 ft 516 kts 99°
2026-04-26 14:44 52.10356 -33.91135 34888 ft 516 kts 99°
2026-04-26 14:44 52.10250 -33.79540 34888 ft 515 kts 99°
2026-04-26 14:45 52.10132 -33.67889 34888 ft 516 kts 99°
2026-04-26 14:45 52.10002 -33.56182 34888 ft 516 kts 99°
2026-04-26 14:46 52.09862 -33.44447 34888 ft 517 kts 99°
2026-04-26 14:46 52.09710 -33.32734 34888 ft 518 kts 99°
2026-04-26 14:47 52.09545 -33.21005 34888 ft 519 kts 99°
2026-04-26 14:47 52.09369 -33.09260 34889 ft 521 kts 99°
2026-04-26 14:48 52.09181 -32.99480 34896 ft 520 kts 99°
2026-04-26 14:48 52.08936 -32.87734 34897 ft 521 kts 99°
2026-04-26 14:49 52.08710 -32.75949 34897 ft 522 kts 99°
2026-04-26 14:49 52.08490 -32.64118 34897 ft 523 kts 98°
2026-04-26 14:50 52.08260 -32.52305 34897 ft 523 kts 98°
2026-04-26 14:50 52.08015 -32.40480 34897 ft 524 kts 98°
2026-04-26 14:51 52.07754 -32.28636 34896 ft 525 kts 98°
2026-04-26 14:51 52.07478 -32.16765 34897 ft 525 kts 98°
2026-04-26 14:52 52.07197 -32.04903 34897 ft 526 kts 98°
2026-04-26 14:52 52.06906 -31.93016 34898 ft 526 kts 98°
2026-04-26 14:53 52.06599 -31.81154 34897 ft 526 kts 98°
2026-04-26 14:53 52.06268 -31.69298 34897 ft 525 kts 99°
2026-04-26 14:54 52.05883 -31.57467 34897 ft 524 kts 99°
2026-04-26 14:54 52.05515 -31.45645 34906 ft 524 kts 98°
2026-04-26 14:55 52.05158 -31.33806 34906 ft 524 kts 98°
2026-04-26 14:55 52.04795 -31.21991 34906 ft 523 kts 98°
2026-04-26 14:56 52.04418 -31.10195 34906 ft 523 kts 98°
2026-04-26 14:56 52.04029 -30.98424 34955 ft 522 kts 98°
2026-04-26 14:57 52.03628 -30.86647 35020 ft 521 kts 98°
2026-04-26 14:57 52.03219 -30.74906 35028 ft 521 kts 98°
2026-04-26 14:58 52.02794 -30.63175 35026 ft 521 kts 97°
2026-04-26 14:58 52.02362 -30.51426 35029 ft 520 kts 97°
2026-04-26 14:59 52.01918 -30.39707 35025 ft 520 kts 97°
2026-04-26 14:59 52.01420 -30.28005 35025 ft 520 kts 98°
2026-04-26 15:00 52.00911 -30.16303 35026 ft 520 kts 97°
2026-04-26 15:00 52.00419 -30.04582 35028 ft 520 kts 97°
2026-04-26 15:01 52.00380 -29.92824 35025 ft 523 kts 90°
2026-04-26 15:01 52.00905 -29.81013 35025 ft 524 kts 88°
2026-04-26 15:02 52.01479 -29.69221 35026 ft 524 kts 89°
2026-04-26 15:02 52.01981 -29.57428 35027 ft 524 kts 89°
2026-04-26 15:03 52.02440 -29.45631 35025 ft 524 kts 89°
2026-04-26 15:03 52.02882 -29.33863 35026 ft 527 kts 90°
2026-04-26 15:04 52.03318 -29.21968 35027 ft 528 kts 90°
2026-04-26 15:04 52.03750 -29.09998 35025 ft 527 kts 90°
2026-04-26 15:05 52.04166 -28.98180 35025 ft 527 kts 90°
2026-04-26 15:05 52.04572 -28.86307 35026 ft 527 kts 90°
2026-04-26 15:06 52.04964 -28.74445 35026 ft 525 kts 90°
2026-04-26 15:06 52.05327 -28.62522 35026 ft 525 kts 90°
2026-04-26 15:07 52.05803 -28.44856 35026 ft 523 kts 90°
2026-04-26 15:07 52.06139 -28.33033 35026 ft 523 kts 89°
2026-04-26 15:08 52.06482 -28.21238 35032 ft 523 kts 90°
2026-04-26 15:08 52.06809 -28.09372 35027 ft 522 kts 90°
2026-04-26 15:09 52.07118 -27.97565 35026 ft 522 kts 90°
2026-04-26 15:09 52.07418 -27.85777 35026 ft 522 kts 90°
2026-04-26 15:10 52.07660 -27.75969 35026 ft 522 kts 90°
2026-04-26 15:10 52.07982 -27.62184 35026 ft 522 kts 90°
2026-04-26 15:11 52.08246 -27.50396 35027 ft 522 kts 90°
2026-04-26 15:11 52.08499 -27.38602 35026 ft 522 kts 90°
2026-04-26 15:12 52.08719 -27.26800 35026 ft 521 kts 91°
2026-04-26 15:12 52.08900 -27.15043 35021 ft 522 kts 91°
2026-04-26 15:13 52.09097 -27.03245 35016 ft 521 kts 90°
2026-04-26 15:13 52.09301 -26.91481 35015 ft 520 kts 91°
2026-04-26 15:14 52.09490 -26.79718 35040 ft 520 kts 90°
2026-04-26 15:14 52.09675 -26.67979 35046 ft 519 kts 90°
2026-04-26 15:15 52.09848 -26.56230 35046 ft 518 kts 90°
2026-04-26 15:15 52.10004 -26.44613 35045 ft 517 kts 91°
2026-04-26 15:16 52.10148 -26.32844 35047 ft 517 kts 91°
2026-04-26 15:16 52.10283 -26.21166 35043 ft 516 kts 91°
2026-04-26 15:17 52.10384 -26.11462 35044 ft 516 kts 91°
2026-04-26 15:17 52.10513 -25.97818 35046 ft 516 kts 91°
2026-04-26 15:18 52.10564 -25.86139 35046 ft 516 kts 91°
2026-04-26 15:18 52.10617 -25.74475 35043 ft 516 kts 91°
2026-04-26 15:19 52.10683 -25.62805 35043 ft 516 kts 91°
2026-04-26 15:19 52.10747 -25.51108 35037 ft 517 kts 91°
2026-04-26 15:20 52.10802 -25.39412 35036 ft 517 kts 91°
2026-04-26 15:20 52.10844 -25.27707 35036 ft 518 kts 91°
2026-04-26 15:21 52.10875 -25.15974 35035 ft 518 kts 91°
2026-04-26 15:21 52.10892 -25.04243 35028 ft 519 kts 91°
2026-04-26 15:22 52.10897 -24.92502 35027 ft 520 kts 91°
2026-04-26 15:22 52.10893 -24.80737 35027 ft 520 kts 90°
2026-04-26 15:23 52.10874 -24.69060 35027 ft 520 kts 90°
2026-04-26 15:23 52.10827 -24.57302 35028 ft 520 kts 91°
2026-04-26 15:24 52.10734 -24.45528 35025 ft 520 kts 90°
2026-04-26 15:24 52.10662 -24.33794 35027 ft 520 kts 90°
2026-04-26 15:25 52.10605 -24.23920 35026 ft 521 kts 90°
2026-04-26 15:25 52.10522 -24.10205 35026 ft 521 kts 90°
2026-04-26 15:26 52.10437 -23.98433 35026 ft 521 kts 90°
2026-04-26 15:26 52.10337 -23.86661 35026 ft 521 kts 90°
2026-04-26 15:27 52.10244 -23.76790 35026 ft 521 kts 91°
2026-04-26 15:27 52.10104 -23.63098 35027 ft 521 kts 91°
2026-04-26 15:28 52.09991 -23.53240 35026 ft 520 kts 91°
2026-04-26 15:28 52.09844 -23.41493 35041 ft 519 kts 91°
2026-04-26 15:29 52.09687 -23.29761 35046 ft 519 kts 91°
2026-04-26 15:30 52.09258 -23.06324 35045 ft 518 kts 91°
2026-04-26 15:30 52.09061 -22.94707 35044 ft 516 kts 91°
2026-04-26 15:31 52.08760 -22.77241 35046 ft 515 kts 91°
2026-04-26 15:32 52.08469 -22.61768 35047 ft 514 kts 91°
2026-04-26 15:32 52.08197 -22.48213 35030 ft 512 kts 91°
2026-04-26 15:33 52.07951 -22.36656 35026 ft 511 kts 91°
2026-04-26 15:33 52.07695 -22.25118 35026 ft 511 kts 91°
2026-04-26 15:34 52.07427 -22.13601 35026 ft 510 kts 91°
2026-04-26 15:34 52.07148 -22.02069 35026 ft 510 kts 91°
2026-04-26 15:35 52.06855 -21.90563 35025 ft 509 kts 91°
2026-04-26 15:35 52.06501 -21.79046 35026 ft 510 kts 91°
2026-04-26 15:36 52.06159 -21.67545 35026 ft 510 kts 91°
2026-04-26 15:36 52.05832 -21.56042 35026 ft 510 kts 91°
2026-04-26 15:37 52.05502 -21.44526 35029 ft 510 kts 91°
2026-04-26 15:37 52.05159 -21.33033 35028 ft 510 kts 91°
2026-04-26 15:38 52.04982 -21.27274 35163 ft 509 kts 91°
2026-04-26 15:38 52.04803 -21.21526 35288 ft 509 kts 91°
2026-04-26 15:38 52.04622 -21.15878 35406 ft 509 kts 91°
2026-04-26 15:38 52.04436 -21.10131 35534 ft 509 kts 91°
2026-04-26 15:39 52.04248 -21.04405 35659 ft 509 kts 91°
2026-04-26 15:39 52.04057 -20.98663 35787 ft 508 kts 91°
2026-04-26 15:39 52.03863 -20.92927 35908 ft 508 kts 92°
2026-04-26 15:39 52.03731 -20.89059 35999 ft 508 kts 92°
2026-04-26 15:40 52.03470 -20.81484 36157 ft 507 kts 91°
2026-04-26 15:40 52.03271 -20.75761 36281 ft 507 kts 92°
2026-04-26 15:40 52.03066 -20.70073 36406 ft 505 kts 92°
2026-04-26 15:40 52.02859 -20.64378 36526 ft 505 kts 92°
2026-04-26 15:41 52.02650 -20.58683 36653 ft 504 kts 92°
2026-04-26 15:41 52.02422 -20.53041 36920 ft 499 kts 92°
2026-04-26 15:41 52.02183 -20.47436 37131 ft 496 kts 92°
2026-04-26 15:41 52.01944 -20.41826 37179 ft 498 kts 92°
2026-04-26 15:42 52.01492 -20.30601 37196 ft 500 kts 92°
2026-04-26 15:42 52.01046 -20.19386 37186 ft 496 kts 92°
2026-04-26 15:43 52.00592 -20.08205 37195 ft 495 kts 92°
2026-04-26 15:44 52.00314 -19.91485 37189 ft 494 kts 86°
2026-04-26 15:44 52.00708 -19.74769 37191 ft 494 kts 86°
2026-04-26 15:45 52.01061 -19.58034 37194 ft 495 kts 86°
2026-04-26 15:46 52.01356 -19.41252 37197 ft 495 kts 86°
2026-04-26 15:46 52.01509 -19.31960 37194 ft 496 kts 86°
2026-04-26 15:47 52.01795 -19.13318 37202 ft 497 kts 86°
2026-04-26 15:48 52.01950 -19.02094 37202 ft 498 kts 86°
2026-04-26 15:48 52.02099 -18.90851 37201 ft 498 kts 86°
2026-04-26 15:49 52.02239 -18.79606 37200 ft 499 kts 86°
2026-04-26 15:49 52.02366 -18.68333 37202 ft 499 kts 87°
2026-04-26 15:50 52.02434 -18.57078 37204 ft 499 kts 87°
2026-04-26 15:50 52.02497 -18.45821 37201 ft 499 kts 87°
2026-04-26 15:51 52.02584 -18.34550 37218 ft 498 kts 87°
2026-04-26 15:51 52.02668 -18.23302 37227 ft 498 kts 87°
2026-04-26 15:52 52.02741 -18.12053 37231 ft 498 kts 87°
2026-04-26 15:52 52.02802 -18.00804 37233 ft 499 kts 87°
2026-04-26 15:53 52.02855 -17.89529 37230 ft 498 kts 87°
2026-04-26 15:53 52.02892 -17.78276 37231 ft 499 kts 87°
2026-04-26 15:54 52.02923 -17.67027 37232 ft 498 kts 88°
2026-04-26 15:54 52.02942 -17.55773 37229 ft 499 kts 88°
2026-04-26 15:55 52.02949 -17.44498 37228 ft 499 kts 88°
2026-04-26 15:55 52.02945 -17.33236 37237 ft 499 kts 88°
2026-04-26 15:56 52.02887 -17.21962 37238 ft 499 kts 88°
2026-04-26 15:56 52.02824 -17.10700 37239 ft 499 kts 88°
2026-04-26 15:57 52.02779 -16.99410 37238 ft 499 kts 88°
2026-04-26 15:57 52.02734 -16.88147 37241 ft 499 kts 88°
2026-04-26 15:58 52.02679 -16.76896 37243 ft 499 kts 88°
2026-04-26 15:58 52.02610 -16.65651 37236 ft 498 kts 88°
2026-04-26 15:59 52.02534 -16.54388 37240 ft 498 kts 88°
2026-04-26 15:59 52.02443 -16.43156 37233 ft 497 kts 88°
2026-04-26 16:00 52.02344 -16.31936 37248 ft 497 kts 88°
2026-04-26 16:00 52.02234 -16.20733 37248 ft 496 kts 89°
2026-04-26 16:01 52.02113 -16.09521 37248 ft 496 kts 89°
2026-04-26 16:01 52.01980 -15.98325 37248 ft 496 kts 89°
2026-04-26 16:02 52.01792 -15.87129 37248 ft 496 kts 89°
2026-04-26 16:02 52.01602 -15.75915 37247 ft 496 kts 89°
2026-04-26 16:03 52.01432 -15.64721 37247 ft 497 kts 89°
2026-04-26 16:03 52.01261 -15.53515 37254 ft 497 kts 89°
2026-04-26 16:04 52.01078 -15.42286 37257 ft 497 kts 89°
2026-04-26 16:04 52.00881 -15.31067 37257 ft 497 kts 90°
2026-04-26 16:05 52.00676 -15.19855 37256 ft 497 kts 90°
2026-04-26 16:05 52.00457 -15.08637 37265 ft 498 kts 90°
2026-04-26 16:06 52.00270 -14.97402 37266 ft 497 kts 89°
2026-04-26 16:06 52.00255 -14.86196 37267 ft 497 kts 88°
2026-04-26 16:07 52.00299 -14.74990 37266 ft 495 kts 88°
2026-04-26 16:07 52.00337 -14.63819 37267 ft 495 kts 88°
2026-04-26 16:08 52.00355 -14.52650 37266 ft 495 kts 88°
2026-04-26 16:08 52.00359 -14.41502 37274 ft 494 kts 89°
2026-04-26 16:09 52.00351 -14.30345 37275 ft 493 kts 89°
2026-04-26 16:09 52.00338 -14.19215 37276 ft 493 kts 89°
2026-04-26 16:10 52.00316 -14.09968 37275 ft 493 kts 89°
2026-04-26 16:10 51.99910 -13.98884 37276 ft 494 kts 99°
2026-04-26 16:11 51.97939 -13.88231 37277 ft 494 kts 111°
2026-04-26 16:11 51.95305 -13.77921 37275 ft 495 kts 112°
2026-04-26 16:12 51.92787 -13.67514 37274 ft 495 kts 110°
2026-04-26 16:12 51.89219 -13.51831 37275 ft 495 kts 110°
2026-04-26 16:13 51.86856 -13.41391 37275 ft 494 kts 110°
2026-04-26 16:13 51.84479 -13.30964 37275 ft 493 kts 110°
2026-04-26 16:14 51.82092 -13.20587 37275 ft 492 kts 110°
2026-04-26 16:15 51.78508 -13.05056 37276 ft 492 kts 110°
2026-04-26 16:15 51.76110 -12.94734 37276 ft 491 kts 110°
2026-04-26 16:16 51.72499 -12.79295 37275 ft 490 kts 111°
2026-04-26 16:16 51.70067 -12.69060 37275 ft 489 kts 111°
2026-04-26 16:17 51.67607 -12.58849 37276 ft 488 kts 111°
2026-04-26 16:17 51.65171 -12.48660 37275 ft 487 kts 111°
2026-04-26 16:18 51.61521 -12.33384 37284 ft 487 kts 111°
2026-04-26 16:19 51.57857 -12.18136 37284 ft 487 kts 111°
2026-04-26 16:20 51.54170 -12.02920 37284 ft 487 kts 112°
2026-04-26 16:20 51.50467 -11.87748 37283 ft 485 kts 112°
2026-04-26 16:21 51.47996 -11.77673 37284 ft 485 kts 112°
2026-04-26 16:21 51.45519 -11.67611 37284 ft 485 kts 112°
2026-04-26 16:22 51.43026 -11.57548 37285 ft 485 kts 112°
2026-04-26 16:22 51.40521 -11.47521 37284 ft 485 kts 113°
2026-04-26 16:23 51.37972 -11.37522 37285 ft 485 kts 113°
2026-04-26 16:23 51.35440 -11.27537 37285 ft 484 kts 113°
2026-04-26 16:24 51.32919 -11.17550 37285 ft 484 kts 113°
2026-04-26 16:24 51.30399 -11.07588 37284 ft 484 kts 113°
2026-04-26 16:25 51.27871 -10.97643 37284 ft 483 kts 113°
2026-04-26 16:25 51.25345 -10.87763 37285 ft 483 kts 114°
2026-04-26 16:26 51.23072 -10.79572 37284 ft 482 kts 116°
2026-04-26 16:26 51.19751 -10.68256 37283 ft 481 kts 117°
2026-04-26 16:27 51.16904 -10.58591 37285 ft 481 kts 116°
2026-04-26 16:27 51.14091 -10.49002 37284 ft 481 kts 117°
2026-04-26 16:28 51.11240 -10.39301 37283 ft 481 kts 117°
2026-04-26 16:28 51.08402 -10.29681 37283 ft 480 kts 117°
2026-04-26 16:29 51.05551 -10.20065 37284 ft 480 kts 117°
2026-04-26 16:29 51.02697 -10.10485 37285 ft 479 kts 117°
2026-04-26 16:30 50.99839 -10.00919 37284 ft 480 kts 117°
2026-04-26 16:30 50.96972 -9.91339 37283 ft 480 kts 118°
2026-04-26 16:31 50.94102 -9.81816 37284 ft 479 kts 118°
2026-04-26 16:31 50.91221 -9.72297 37288 ft 478 kts 118°
2026-04-26 16:32 50.88818 -9.64427 37284 ft 478 kts 118°
2026-04-26 16:32 50.85397 -9.53380 37284 ft 478 kts 118°
2026-04-26 16:33 50.82486 -9.43927 37277 ft 478 kts 118°
2026-04-26 16:33 50.79582 -9.34480 37275 ft 478 kts 118°
2026-04-26 16:34 50.76669 -9.25031 37275 ft 478 kts 118°
2026-04-26 16:34 50.73756 -9.15612 37275 ft 478 kts 118°
2026-04-26 16:35 50.70829 -9.06193 37267 ft 477 kts 119°
2026-04-26 16:35 50.67900 -8.96806 37266 ft 477 kts 119°
2026-04-26 16:36 50.64958 -8.87415 37266 ft 477 kts 119°
2026-04-26 16:36 50.62017 -8.78062 37266 ft 476 kts 119°
2026-04-26 16:37 50.59070 -8.68720 37266 ft 477 kts 119°
2026-04-26 16:37 50.56613 -8.60956 37266 ft 476 kts 120°
2026-04-26 16:38 50.53151 -8.50065 37266 ft 476 kts 120°
2026-04-26 16:38 50.50152 -8.40811 37260 ft 476 kts 120°
2026-04-26 16:39 50.47156 -8.31563 37256 ft 475 kts 120°
2026-04-26 16:39 50.44178 -8.22326 37257 ft 474 kts 120°
2026-04-26 16:40 50.41196 -8.13085 37257 ft 474 kts 120°
2026-04-26 16:40 50.38217 -8.03887 37256 ft 473 kts 120°
2026-04-26 16:41 50.35369 -7.94593 37256 ft 474 kts 117°
2026-04-26 16:41 50.32698 -7.85133 37258 ft 475 kts 117°
2026-04-26 16:42 50.30053 -7.75688 37257 ft 474 kts 117°
2026-04-26 16:42 50.27390 -7.66267 37257 ft 474 kts 117°
2026-04-26 16:43 50.24708 -7.56855 37247 ft 473 kts 117°
2026-04-26 16:43 50.22024 -7.47469 37248 ft 473 kts 117°
2026-04-26 16:44 50.19332 -7.38094 37248 ft 473 kts 117°
2026-04-26 16:44 50.16627 -7.28715 37247 ft 473 kts 117°
2026-04-26 16:45 50.13917 -7.19354 37247 ft 474 kts 117°
2026-04-26 16:45 50.11198 -7.09994 37248 ft 474 kts 118°
2026-04-26 16:46 50.08468 -7.00639 37241 ft 475 kts 118°
2026-04-26 16:46 50.05735 -6.91285 37235 ft 475 kts 118°
2026-04-26 16:47 50.02976 -6.81924 37244 ft 476 kts 118°
2026-04-26 16:47 50.00177 -6.72612 37238 ft 476 kts 118°
2026-04-26 16:48 49.97388 -6.63288 37237 ft 476 kts 118°
2026-04-26 16:48 49.95055 -6.55457 37244 ft 477 kts 118°
2026-04-26 16:49 49.92269 -6.46126 37244 ft 477 kts 118°
2026-04-26 16:49 49.89476 -6.36793 37244 ft 476 kts 118°
2026-04-26 16:50 49.86679 -6.27487 37241 ft 476 kts 118°
2026-04-26 16:50 49.83873 -6.18182 37240 ft 476 kts 118°
2026-04-26 16:51 49.81065 -6.08910 37237 ft 475 kts 118°
2026-04-26 16:51 49.78247 -5.99657 37238 ft 475 kts 119°
2026-04-26 16:52 49.75899 -5.91970 37239 ft 475 kts 118°
2026-04-26 16:52 49.72595 -5.81182 37237 ft 475 kts 119°
2026-04-26 16:53 49.69782 -5.72036 37242 ft 474 kts 119°
2026-04-26 16:53 49.66906 -5.62779 37242 ft 475 kts 119°
2026-04-26 16:54 49.64046 -5.53689 37235 ft 474 kts 119°
2026-04-26 16:54 49.61174 -5.44522 37239 ft 475 kts 119°
2026-04-26 16:55 49.58306 -5.35346 37235 ft 475 kts 119°
2026-04-26 16:55 49.55430 -5.26153 37236 ft 476 kts 119°
2026-04-26 16:56 49.51085 -5.12343 37236 ft 476 kts 119°
2026-04-26 16:57 49.48205 -5.03152 37227 ft 477 kts 116°
2026-04-26 16:57 49.45004 -4.88585 37237 ft 481 kts 109°
2026-04-26 16:58 49.43441 -4.80383 37229 ft 481 kts 109°
2026-04-26 16:59 49.40196 -4.63969 37228 ft 482 kts 109°
2026-04-26 17:00 49.36219 -4.44317 37232 ft 482 kts 110°
2026-04-26 17:00 49.33220 -4.29634 37221 ft 481 kts 110°
2026-04-26 17:01 49.31204 -4.19831 37223 ft 482 kts 110°
2026-04-26 17:01 49.29182 -4.10047 37207 ft 482 kts 110°
2026-04-26 17:02 49.27154 -4.00272 37204 ft 482 kts 110°
2026-04-26 17:02 49.25113 -3.90498 37202 ft 483 kts 110°
2026-04-26 17:03 49.23054 -3.80695 37206 ft 483 kts 110°
2026-04-26 17:03 49.20953 -3.70934 37203 ft 484 kts 110°
2026-04-26 17:04 49.18861 -3.61167 37203 ft 484 kts 110°
2026-04-26 17:04 49.16784 -3.51403 37202 ft 483 kts 110°
2026-04-26 17:05 49.14711 -3.41704 37208 ft 483 kts 110°
2026-04-26 17:05 49.12604 -3.31894 37211 ft 483 kts 110°
2026-04-26 17:06 49.10498 -3.22137 37212 ft 483 kts 110°
2026-04-26 17:06 49.08358 -3.12261 37210 ft 483 kts 110°
2026-04-26 17:07 49.06238 -3.02519 37211 ft 483 kts 110°
2026-04-26 17:07 49.04109 -2.92813 37211 ft 483 kts 110°
2026-04-26 17:08 49.01973 -2.83109 37212 ft 483 kts 110°
2026-04-26 17:08 48.99832 -2.73416 37212 ft 483 kts 110°
2026-04-26 17:09 48.98047 -2.65356 37212 ft 483 kts 110°
2026-04-26 17:09 48.95509 -2.54114 37211 ft 483 kts 110°
2026-04-26 17:10 48.93771 -2.44263 37209 ft 485 kts 98°
2026-04-26 17:10 48.93333 -2.33966 37211 ft 485 kts 92°
2026-04-26 17:11 48.93123 -2.23679 37211 ft 487 kts 92°
2026-04-26 17:11 48.92814 -2.13460 37210 ft 486 kts 94°
2026-04-26 17:12 48.92231 -1.98021 37211 ft 486 kts 94°
2026-04-26 17:13 48.91610 -1.82649 37211 ft 485 kts 94°
2026-04-26 17:14 48.90952 -1.67305 37211 ft 484 kts 94°
2026-04-26 17:14 48.90281 -1.51997 37212 ft 484 kts 94°
2026-04-26 17:15 48.89601 -1.36676 37220 ft 484 kts 94°
2026-04-26 17:16 48.89144 -1.26471 37218 ft 484 kts 94°
2026-04-26 17:16 48.88679 -1.16279 37218 ft 484 kts 94°
2026-04-26 17:17 48.88204 -1.06074 37223 ft 484 kts 94°
2026-04-26 17:17 48.87727 -0.95941 37222 ft 484 kts 94°
2026-04-26 17:17 48.87482 -0.90863 36988 ft 477 kts 95°
2026-04-26 17:18 48.87240 -0.85911 36722 ft 467 kts 95°
2026-04-26 17:18 48.86997 -0.80945 36308 ft 463 kts 95°
2026-04-26 17:18 48.86757 -0.76072 35796 ft 463 kts 95°
2026-04-26 17:18 48.86513 -0.71176 35281 ft 468 kts 95°
2026-04-26 17:19 48.86020 -0.61335 34185 ft 472 kts 95°
2026-04-26 17:19 48.85767 -0.56362 33646 ft 471 kts 95°
2026-04-26 17:19 48.85512 -0.51399 33115 ft 472 kts 95°
2026-04-26 17:20 48.85253 -0.46430 32583 ft 473 kts 95°
2026-04-26 17:20 48.85165 -0.44749 32402 ft 473 kts 95°
2026-04-26 17:20 48.84729 -0.36469 31513 ft 474 kts 95°
2026-04-26 17:20 48.84464 -0.31474 30951 ft 475 kts 95°
2026-04-26 17:21 48.84192 -0.26472 30395 ft 475 kts 96°
2026-04-26 17:21 48.83895 -0.21476 29825 ft 476 kts 96°
2026-04-26 17:21 48.83587 -0.16475 29270 ft 477 kts 96°
2026-04-26 17:21 48.83280 -0.11458 28702 ft 478 kts 96°
2026-04-26 17:22 48.82976 -0.06416 28132 ft 480 kts 96°
2026-04-26 17:22 48.82676 -0.01352 27556 ft 482 kts 96°
2026-04-26 17:22 48.82375 0.03711 26965 ft 481 kts 96°
2026-04-26 17:22 48.82076 0.08741 26371 ft 475 kts 95°
2026-04-26 17:23 48.81779 0.13709 25790 ft 471 kts 95°
2026-04-26 17:23 48.81484 0.18630 25212 ft 466 kts 95°
2026-04-26 17:23 48.81188 0.23505 24636 ft 462 kts 95°
2026-04-26 17:23 48.80894 0.28338 24066 ft 458 kts 95°
2026-04-26 17:24 48.80699 0.31510 23699 ft 455 kts 95°
2026-04-26 17:24 48.80404 0.36269 23142 ft 451 kts 95°
2026-04-26 17:24 48.80063 0.40977 22587 ft 448 kts 98°
2026-04-26 17:24 48.79366 0.45558 21993 ft 443 kts 110°
2026-04-26 17:25 48.78028 0.49721 21398 ft 436 kts 125°
2026-04-26 17:25 48.76041 0.53123 20832 ft 429 kts 141°
2026-04-26 17:25 48.73553 0.55530 20272 ft 422 kts 157°
2026-04-26 17:25 48.70820 0.57032 19727 ft 415 kts 166°
2026-04-26 17:26 48.68030 0.58123 19186 ft 413 kts 168°
2026-04-26 17:26 48.65244 0.59091 18630 ft 410 kts 169°
2026-04-26 17:26 48.62477 0.60051 18087 ft 406 kts 169°
2026-04-26 17:26 48.59756 0.61031 17537 ft 402 kts 168°
2026-04-26 17:27 48.57047 0.62046 16990 ft 399 kts 167°
2026-04-26 17:27 48.54366 0.63076 16445 ft 396 kts 167°
2026-04-26 17:27 48.51719 0.64167 15914 ft 393 kts 165°
2026-04-26 17:27 48.49100 0.65302 15394 ft 391 kts 166°
2026-04-26 17:28 48.46489 0.66385 14882 ft 387 kts 166°
2026-04-26 17:28 48.43897 0.67433 14436 ft 383 kts 166°
2026-04-26 17:28 48.41323 0.68462 14056 ft 383 kts 166°
2026-04-26 17:28 48.38753 0.69486 13688 ft 381 kts 166°
2026-04-26 17:29 48.36223 0.70493 13445 ft 367 kts 166°
2026-04-26 17:29 48.34626 0.71128 13350 ft 352 kts 166°
2026-04-26 17:29 48.31534 0.72465 13223 ft 343 kts 159°
2026-04-26 17:29 48.29476 0.74251 13141 ft 343 kts 139°
2026-04-26 17:30 48.28049 0.77076 13055 ft 342 kts 114°
2026-04-26 17:30 48.27542 0.80539 12982 ft 342 kts 89°
2026-04-26 17:30 48.27976 0.84025 12917 ft 342 kts 70°
2026-04-26 17:30 48.28877 0.87326 12859 ft 342 kts 65°
2026-04-26 17:31 48.29882 0.90560 12792 ft 342 kts 64°
2026-04-26 17:31 48.30887 0.93797 12728 ft 341 kts 65°
2026-04-26 17:31 48.31868 0.97041 12660 ft 341 kts 65°
2026-04-26 17:31 48.32827 1.00303 12610 ft 341 kts 66°
2026-04-26 17:32 48.33766 1.03568 12548 ft 341 kts 66°
2026-04-26 17:32 48.34694 1.06844 12486 ft 340 kts 66°
2026-04-26 17:32 48.35614 1.10120 12419 ft 340 kts 66°
2026-04-26 17:32 48.36527 1.13393 12361 ft 340 kts 67°
2026-04-26 17:33 48.37437 1.16668 12293 ft 339 kts 67°
2026-04-26 17:33 48.38341 1.19932 12228 ft 338 kts 67°
2026-04-26 17:33 48.39242 1.23196 12177 ft 338 kts 67°
2026-04-26 17:34 48.41047 1.29732 12026 ft 338 kts 67°
2026-04-26 17:34 48.41936 1.32958 11792 ft 337 kts 66°
2026-04-26 17:34 48.42833 1.36209 11542 ft 336 kts 67°
2026-04-26 17:34 48.43725 1.39452 11173 ft 335 kts 67°
2026-04-26 17:35 48.44623 1.42724 10853 ft 331 kts 67°
2026-04-26 17:35 48.45492 1.45901 10701 ft 321 kts 67°
2026-04-26 17:35 48.46301 1.48869 10600 ft 300 kts 67°
2026-04-26 17:35 48.47082 1.51732 10447 ft 289 kts 67°
2026-04-26 17:36 48.47852 1.54550 10090 ft 290 kts 67°
2026-04-26 17:36 48.48617 1.57355 9611 ft 288 kts 68°
2026-04-26 17:36 48.49364 1.60099 9172 ft 285 kts 68°
2026-04-26 17:36 48.50118 1.62875 8719 ft 281 kts 68°
2026-04-26 17:37 48.50856 1.65586 8291 ft 278 kts 68°
2026-04-26 17:37 48.51584 1.68272 7867 ft 276 kts 68°
2026-04-26 17:37 48.52305 1.70935 7477 ft 272 kts 68°
2026-04-26 17:38 48.53715 1.76161 6721 ft 270 kts 68°
2026-04-26 17:38 48.54421 1.78777 6350 ft 268 kts 68°
2026-04-26 17:38 48.55120 1.81362 5983 ft 265 kts 68°
2026-04-26 17:38 48.55812 1.83931 5623 ft 263 kts 68°
2026-04-26 17:39 48.56497 1.86476 5277 ft 261 kts 68°
2026-04-26 17:39 48.57179 1.89003 4934 ft 259 kts 66°
2026-04-26 17:39 48.57954 1.91455 4603 ft 258 kts 63°
2026-04-26 17:39 48.58780 1.93854 4289 ft 256 kts 62°
2026-04-26 17:40 48.59606 1.96223 4024 ft 253 kts 62°
2026-04-26 17:40 48.60159 1.97809 3982 ft 253 kts 62°
2026-04-26 17:40 48.61230 2.00870 3980 ft 237 kts 62°
2026-04-26 17:40 48.61950 2.02939 3952 ft 208 kts 62°
2026-04-26 17:41 48.62597 2.04783 3961 ft 195 kts 62°
2026-04-26 17:41 48.63222 2.06562 3957 ft 187 kts 62°
2026-04-26 17:41 48.63830 2.08297 3728 ft 185 kts 61°
2026-04-26 17:41 48.64427 2.09992 3484 ft 183 kts 61°
2026-04-26 17:42 48.65022 2.11684 3256 ft 182 kts 60°
2026-04-26 17:42 48.65615 2.13374 3031 ft 181 kts 61°
2026-04-26 17:42 48.66200 2.15050 2775 ft 178 kts 61°
2026-04-26 17:42 48.66780 2.16705 2580 ft 180 kts 61°
2026-04-26 17:43 48.67366 2.18377 2319 ft 178 kts 62°
2026-04-26 17:43 48.67945 2.20038 2082 ft 179 kts 61°
2026-04-26 17:43 48.68528 2.21702 1841 ft 178 kts 62°
2026-04-26 17:43 48.69081 2.23288 1569 ft 159 kts 62°
2026-04-26 17:44 48.69584 2.24723 1374 ft 152 kts 62°
2026-04-26 17:44 48.70078 2.26140 1202 ft 152 kts 62°
2026-04-26 17:44 48.70567 2.27538 1002 ft 151 kts 61°
2026-04-26 17:44 48.71051 2.28938 795 ft 152 kts 63°
2026-04-26 17:45 48.71535 2.30354 531 ft 151 kts 59°
2026-04-26 17:45 48.72033 2.31748 346 ft 152 kts 62°
2026-04-26 17:45 48.72490 2.33059 304 ft 120 kts 63°
2026-04-26 17:45 48.72806 2.33965 306 ft 78 kts 63°
2026-04-26 17:46 48.72975 2.34451 301 ft 27 kts 68°
2026-04-26 17:46 48.73007 2.34691 302 ft 22 kts 80°
2026-04-26 17:46 48.73028 2.34905 298 ft 19 kts 82°
2026-04-26 17:46 48.73039 2.35093 302 ft 16 kts 95°
2026-04-26 17:47 48.73006 2.35236 303 ft 13 kts 126°
2026-04-26 17:47 48.72963 2.35295 303 ft 12 kts 140°
2026-04-26 17:47 48.72877 2.35401 303 ft 12 kts 145°
2026-04-26 17:47 48.72802 2.35454 303 ft 12 kts 163°
2026-04-26 17:48 48.72717 2.35490 303 ft 13 kts 165°
2026-04-26 17:48 48.72627 2.35525 302 ft 14 kts 166°
2026-04-26 17:48 48.72532 2.35564 302 ft 14 kts 164°
2026-04-26 17:48 48.72434 2.35606 302 ft 15 kts 165°
2026-04-26 17:49 48.72342 2.35674 300 ft 14 kts 127°
2026-04-26 17:49 48.72343 2.35812 303 ft 13 kts 75°
2026-04-26 17:49 48.72369 2.35945 302 ft 13 kts 74°
2026-04-26 17:49 48.72394 2.36083 300 ft 14 kts 74°
2026-04-26 17:50 48.72440 2.36199 302 ft 13 kts 33°
2026-04-26 17:50 48.72504 2.36292 299 ft 13 kts 59°
2026-04-26 17:50 48.72532 2.36390 303 ft 6 kts 66°
2026-04-26 17:50 48.72556 2.36412 301 ft 3 kts 12°
2026-04-26 17:51 48.72585 2.36406 299 ft 6 kts 349°
2026-04-26 17:51 48.72619 2.36392 302 ft 0 kts 344°
2026-04-26 17:51 48.72620 2.36391 302 ft 1 kts 343°
2026-04-26 17:51 48.72630 2.36387 299 ft 1 kts 343°